[[{"header":{"parameterUnit":"m.s-1","parameterCategory":1,"la1":30.2992,"la2":30.254,"lo1":-89.0895,"lo2":-89.0443,"dy":0.0025,"dx":0.0025,"nx":19,"ny":19,"refTime":"2026-05-04T03:00:00:Z","depth":0,"parameterNumber":2,"parameterNumberName":"U-component_of_WINDS"},"data":[0,0,0,0.1847,0.1849,0.1978,0.1979,0.2126,0.2127,0,0,0,0,0,0,0,0,0,0,0,0.1799,0.1799,0.1847,0.185,0.1978,0.1979,0.2125,0.2127,0,0,0,0,0,0,0,0,0,0,0,0.1798,0.1799,0.18,0.185,0.1978,0.1979,0.2125,0.2034,0,0,0,0,0,0,0,0,0,0,0.1912,0.1858,0.1799,0.18,0.1851,0.1978,0.1979,0.203,0.204,0.206,0,0.2076,0,0.2104,0.2136,0.2136,0,0,0,0.1857,0.185,0.1894,0.18,0.1852,0.1978,0.1922,0.2036,0.2047,0.2073,0.2078,0.2084,0.2106,0.2136,0.2137,0.2231,0.2231,0,0,0.185,0.1816,0.1886,0.19,0.1881,0.1918,0.1926,0.2043,0.2046,0.2079,0.2088,0.2108,0.2137,0.2138,0.2231,0.2231,0,0,0,0.1824,0.1811,0.1853,0.1894,0.1918,0.1922,0.1931,0.2041,0.2057,0.209,0.211,0.2138,0.214,0.223,0.2231,0.2204,0,0,0,0.182,0.1797,0.1849,0.183,0.1916,0.1982,0.1926,0.2049,0.2063,0.2109,0.2138,0.2141,0.223,0.223,0.2204,0.2196,0,0,0,0.1794,0.1794,0.1809,0.1828,0.1882,0.1981,0.2004,0.2053,0.2076,0.2136,0.2141,0.223,0.223,0.2205,0.2197,0.2211,0,0,0,0.1755,0.1783,0.1808,0.1847,0.1881,0.1963,0.2003,0.2066,0.2115,0.2139,0.223,0.2231,0.2205,0.2198,0.2211,0.2217,0.2216,0,0,0.1772,0.1784,0.1809,0.1835,0.1905,0.1946,0.2011,0.2087,0.2123,0.2192,0.2195,0.2204,0.2197,0.2211,0.2223,0.2222,0,0,0,0.1803,0.1821,0.1847,0.1892,0.195,0.1999,0.2069,0.2096,0.2157,0.2152,0.2214,0.2211,0.222,0.2224,0.2224,0.2234,0.2231,0.2231,0.2231,0.1779,0.1823,0.1868,0.1927,0.197,0.2041,0.208,0.2129,0.2161,0.2175,0.2196,0.2198,0.2201,0.2201,0.2211,0.2202,0.2202,0.2202,0.2202,0.1807,0.1839,0.1881,0.1939,0.1985,0.2034,0.2102,0.2123,0.2175,0.2186,0.2196,0.2204,0.2198,0.2209,0.22,0.2201,0.2201,0.2201,0.2201,0.1796,0.1819,0.1853,0.1922,0.197,0.2029,0.2076,0.2116,0.2154,0.2165,0.2191,0.2192,0.2197,0.2174,0.2174,0.2174,0.2174,0.2174,0.2174,0.1772,0.181,0.1846,0.191,0.1944,0.1993,0.2063,0.2097,0.2145,0.217,0.2171,0.2201,0.219,0.2186,0.2175,0.2175,0.2175,0.2175,0.2175,0.1783,0.1787,0.1842,0.1876,0.1954,0.1998,0.2049,0.2114,0.2148,0.217,0.2197,0.2183,0.2198,0.2199,0.2196,0.2188,0.2188,0.2188,0.2188,0.1774,0.1786,0.1851,0.1902,0.1957,0.2008,0.2067,0.2121,0.2178,0.2201,0.2208,0.2208,0.2207,0.2222,0.2223,0.2221,0.2219,0.2219,0.2219,0.1784,0.1802,0.1846,0.1902,0.1965,0.2018,0.2075,0.2131,0.2196,0.2222,0.222,0.2219,0.2219,0.2216,0.2242,0.2242,0.2239,0,0]},{"header":{"parameterUnit":"m.s-1","parameterCategory":1,"la1":30.2992,"la2":30.254,"lo1":-89.0895,"lo2":-89.0443,"dy":0.0025,"dx":0.0025,"nx":19,"ny":19,"refTime":"2026-05-04T03:00:00:Z","depth":0,"parameterNumber":3,"parameterNumberName":"V-component_of_WINDS"},"data":[0,0,0,3.916,3.916,3.9141,3.9141,3.913,3.9131,0,0,0,0,0,0,0,0,0,0,0,3.9175,3.9176,3.916,3.916,3.9141,3.9141,3.913,3.9131,0,0,0,0,0,0,0,0,0,0,0,3.9175,3.9176,3.9176,3.916,3.9141,3.9141,3.913,3.914,0,0,0,0,0,0,0,0,0,0,3.9156,3.9179,3.9176,3.9176,3.916,3.9141,3.9141,3.914,3.9139,3.9145,0,3.9154,0,3.9142,3.9131,3.9131,0,0,0,3.9153,3.918,3.9166,3.9176,3.916,3.9141,3.9148,3.9139,3.9138,3.9144,3.9154,3.9153,3.9142,3.9131,3.9131,3.9192,3.9192,0,0,3.9154,3.9177,3.9167,3.9166,3.9171,3.9148,3.9147,3.9138,3.915,3.9154,3.9153,3.9142,3.9131,3.9131,3.9191,3.9192,0,0,0,3.9162,3.9178,3.9164,3.9167,3.9163,3.9148,3.9147,3.9151,3.9144,3.9152,3.9142,3.9131,3.9131,3.919,3.9191,3.9244,0,0,0,3.9162,3.9183,3.9165,3.9179,3.9163,3.9157,3.9159,3.9145,3.9143,3.9142,3.9131,3.9131,3.919,3.9191,3.9241,3.9264,0,0,0,3.9173,3.9184,3.9184,3.918,3.9173,3.9156,3.9149,3.9144,3.9137,3.9131,3.9131,3.9189,3.9191,3.9238,3.926,3.9286,0,0,0,3.9192,3.9232,3.9186,3.9226,3.9173,3.9189,3.9149,3.9159,3.9161,3.9131,3.919,3.9191,3.9237,3.9257,3.9283,3.9311,3.9325,0,0,3.9255,3.924,3.9262,3.922,3.925,3.919,3.9227,3.9207,3.9185,3.919,3.9192,3.9242,3.9259,3.9285,3.9398,3.9409,0,0,0,3.929,3.9305,3.9308,3.931,3.9296,3.9284,3.9255,3.9247,3.9251,3.9193,3.9258,3.9268,3.9282,3.9294,3.9304,3.9313,3.9198,3.9198,3.9198,3.9411,3.9381,3.9415,3.9382,3.9385,3.9354,3.9352,3.9336,3.9306,3.9321,3.9322,3.9395,3.941,3.9417,3.9427,3.9336,3.9336,3.9336,3.9336,3.95,3.9516,3.9474,3.9491,3.9459,3.9472,3.9444,3.9421,3.9429,3.9392,3.9403,3.9364,3.943,3.9438,3.934,3.9339,3.9339,3.9338,3.9338,3.9575,3.9577,3.9567,3.9566,3.9568,3.9534,3.9542,3.9512,3.9485,3.9495,3.9492,3.9491,3.9485,3.9496,3.9496,3.9497,3.9497,3.9497,3.9497,3.9656,3.9643,3.9654,3.9641,3.9637,3.9629,3.9598,3.9593,3.958,3.9558,3.9558,3.9524,3.9443,3.9422,3.9501,3.95,3.95,3.9499,3.9499,3.9755,3.9728,3.9745,3.9742,3.9722,3.9726,3.9688,3.9681,3.9672,3.9677,3.9641,3.9587,3.9569,3.9561,3.9544,3.9649,3.9649,3.9649,3.9649,3.9817,3.9806,3.9816,3.9812,3.9805,3.9772,3.979,3.9766,3.9736,3.9728,3.9709,3.9684,3.9677,3.9664,3.9653,3.9637,3.9763,3.9763,3.9763,3.9875,3.9861,3.9884,3.9855,3.9837,3.9822,3.9838,3.9834,3.9795,3.9767,3.9722,3.9717,3.9676,3.9664,3.9635,3.962,3.9588,0,0]}]]